Home   Weather   Quincy   Past weeks
Flag for USA

Past Weather in Quincy, Massachusetts, USA — Yesterday and Last 2 Weeks

Now
55 °F

Cool.


Feels Like: 51 °F
Forecast: 68 / 62 °F
Wind: 14 mph from Northwest

Location: East Milton

Current Time: Jun 7, 2020 at 3:35:49 am

Latest Report: Jun 7, 2020 at 2:51 am


Visibility: N/A

Pressure: 29.75 "Hg

Humidity: 93%

Dew Point: 53 °F

Location of QuincyLocation

Past Weather in Quincy — Graph

°F

Quincy Temperature Yesterday

Maximum temperature yesterday: 85 °F (at 1:51 pm)
Minimum temperature yesterday: 58 °F (at 11:51 pm)
Average temperature yesterday: 70 °F

High & Low Weather Summary for the Past Weeks

 TemperatureHumidityPressure
High85 °F (Jun 4, 3:51 pm)100% (May 25, 4:51 am)30.37 "Hg (May 25, 4:51 am)
Low42 °F (Jun 1, 4:51 am)29% (Jun 1, 4:51 pm)29.55 "Hg (Jun 3, 3:51 pm)
Average63 °F73%30.02 "Hg
* Reported May 23 1:51 am — Jun 7 1:51 am, Quincy. Weather by CustomWeather, © 2020

Note: Actual official high and low records may vary slightly from our data, if they occured in-between our weather recording intervals... More about our weather records

Quincy Weather History for the Previous 24 Hours

Scroll right to see more
 ConditionsComfort  
Time TempWeatherWind HumidityBarometerVisibility
1:51 am
Sun, Jun 7
56 °FCool.10 mph93%29.76 "HgN/A
12:51 am57 °FCool.14 mph93%29.75 "HgN/A
11:51 pm
Sat, Jun 6
58 °FCool.13 mph97%29.74 "HgN/A
10:51 pm60 °FCool.13 mph93%29.76 "HgN/A
8:51 pm68 °FMild.6 mph82%29.70 "HgN/A
7:51 pm68 °FMild.3 mph90%29.71 "HgN/A
6:51 pm69 °FMild.No wind90%29.72 "HgN/A
5:51 pm66 °FMild.No wind96%29.71 "HgN/A
4:51 pm67 °FMild.9 mph81%29.67 "HgN/A
3:58 pm64 °FMild.33 mph97%29.69 "HgN/A
2:51 pm85 °FWarm.14 mph55%29.64 "HgN/A
1:51 pm85 °FWarm.9 mph57%29.67 "HgN/A
12:51 pm82 °FWarm.10 mph65%29.70 "HgN/A
11:51 am79 °FWarm.13 mph69%29.74 "HgN/A
10:51 am75 °FMild.10 mph76%29.75 "HgN/A
9:51 am73 °FMild.12 mph81%29.77 "HgN/A
8:51 am68 °FMild.12 mph96%29.79 "HgN/A
7:51 am67 °FMild.12 mph97%29.80 "HgN/A
6:51 am66 °FMild.12 mph100%29.80 "HgN/A
5:51 am66 °FMild.14 mph100%29.80 "HgN/A
4:51 am66 °FMild.14 mph100%29.80 "HgN/A
3:51 am66 °FMild.12 mph96%29.81 "HgN/A
Weather by CustomWeather, © 2020

See weather overview

Advertising